Theta_e
317 318 318 317 318 318 318 318 317 316 316 316 317 315 316 317 316 318 317 318 319 320 321 321 322 323 337 357 353 354 354 353 352 354 353 350 349 347 345 345 349 347 344 341
318 318 318 318 318 317 317 318 318 318 316 316 317 317 316 316 316 317 318 319 320 321 322 322 322 323 344 356 354 353 352 353 352 352 350 348 346 345 345 347 346 345 343 343
316 318 318 318 319 318 318 319 318 318 318 317 318 319 318 317 316 315 317 318 319 320 323 323 323 330 352 354 353 354 353 353 352 350 349 347 345 345 345 346 344 344 344 341
317 318 317 317 318 317 319 317 318 319 320 319 317 320 319 318 318 317 316 317 318 320 322 323 323 334 355 353 354 354 354 353 350 349 348 346 346 345 345 346 346 342 339 339
318 317 317 318 318 317 319 318 319 319 320 319 320 319 319 319 318 318 317 315 317 319 321 323 324 340 354 351 354 355 354 352 350 348 348 346 346 345 344 341 336 336 340 341
317 316 317 318 317 317 317 319 319 319 319 324 320 319 319 318 318 318 318 316 316 318 320 323 326 341 354 352 353 352 350 348 347 349 346 347 344 340 332 335 338 341 341 339
318 318 318 319 318 317 317 320 321 323 326 323 318 319 319 319 319 318 318 317 316 317 320 323 326 350 352 352 352 350 352 350 349 348 347 341 335 333 340 341 341 341 339 336
320 320 318 318 319 318 319 320 320 321 325 321 318 318 320 320 319 317 317 317 317 316 320 323 325 349 352 352 354 352 351 349 349 348 341 333 337 341 343 340 338 336 335 333
322 319 317 315 315 317 319 320 318 321 322 322 319 319 320 318 317 318 317 317 318 317 320 323 324 349 350 351 354 352 351 350 350 345 338 337 344 344 339 339 336 336 335 332
317 318 315 316 315 316 317 317 321 320 322 321 318 317 316 318 317 318 318 317 318 318 321 324 324 335 348 351 353 352 350 350 347 347 341 344 345 340 339 338 336 333 331 328
313 311 315 314 317 319 319 318 318 319 321 321 317 315 317 319 320 319 318 317 320 320 322 324 331 347 348 351 351 350 349 348 346 345 345 344 341 339 336 334 333 333 331 328
313 312 317 316 315 316 317 319 318 322 318 318 317 319 317 317 318 319 318 318 321 321 323 329 346 346 350 350 349 348 347 348 348 347 344 342 342 335 332 333 330 328 330 330
310 314 319 319 320 315 317 318 319 319 320 321 322 320 316 316 317 317 321 317 321 323 325 347 341 328 342 348 348 347 347 348 345 343 343 341 335 331 332 330 327 331 331 327
313 312 315 320 319 318 320 317 318 318 321 320 318 317 317 316 317 318 322 317 321 335 342 342 343 342 345 344 345 347 345 345 344 341 337 333 331 332 332 329 328 328 324 320
311 315 316 318 317 318 321 321 318 317 317 319 318 317 318 317 319 322 322 320 338 339 336 338 338 338 340 339 341 341 343 342 338 335 331 330 329 328 326 325 323 320 318 316
313 315 317 321 320 320 319 318 318 318 319 319 318 322 319 319 318 322 324 335 335 335 334 333 334 334 337 339 339 340 339 337 336 328 326 325 324 323 322 321 318 316 315 315
313 314 316 322 321 322 323 315 312 314 314 310 318 319 319 317 325 328 334 336 334 332 331 331 331 334 334 335 339 337 336 334 328 324 324 322 322 321 319 317 316 315 313 312
313 314 317 323 323 327 317 308 307 309 310 309 311 314 321 320 327 333 333 332 330 330 329 328 330 330 331 336 335 333 332 331 328 323 323 321 319 317 317 315 313 312 312 313
312 314 319 323 324 323 319 308 306 306 309 310 309 314 324 324 324 325 328 328 329 329 328 328 328 329 331 332 331 332 330 329 325 320 319 317 317 316 315 314 313 312 312 312
313 315 318 320 321 325 308 306 304 307 317 307 305 312 327 329 323 321 323 325 327 328 328 327 327 328 327 326 328 327 323 321 319 318 318 317 317 315 314 313 312 312 311 311
313 313 317 318 320 318 305 304 306 318 313 303 306 315 320 319 318 320 323 324 325 326 326 327 327 327 326 325 324 322 320 319 319 318 318 316 314 313 312 312 312 311 311 310
312 313 314 315 319 319 304 304 306 304 300 306 309 314 314 315 317 320 321 322 323 324 323 324 324 324 323 322 321 320 319 318 318 316 314 313 312 312 311 310 309 310 309 310
315 309 310 309 310 306 302 299 299 304 306 307 308 311 313 314 316 318 319 320 320 321 320 320 320 319 320 319 318 317 317 317 315 313 312 311 311 310 310 309 309 308 308 308
309 306 308 307 307 304 301 300 300 303 305 305 307 309 311 312 314 316 317 317 318 318 318 318 317 316 316 316 315 315 315 315 314 312 311 310 310 309 308 307 307 307 307 307
307 305 306 307 306 301 303 300 299 302 304 304 305 305 307 311 312 313 314 313 313 313 314 314 313 313 313 313 313 313 313 313 312 311 309 308 307 306 305 305 303 304 304 305
304 305 305 307 301 299 299 299 300 302 303 303 304 303 303 309 309 311 311 311 311 311 311 311 311 311 311 311 310 311 310 309 309 308 308 307 306 304 302 301 301 300 301 300
Wind_Speed
20 14 15 22 19 19 21 24 24 22 20 12 18 21 22 18 26 28 33 28 28 30 29 31 31 28 28 31 36 33 35 33 32 28 25 22 18 18 16 14 14 11 12 11
17 20 23 22 22 22 23 25 26 25 21 20 24 23 21 19 22 26 26 23 24 25 25 28 30 31 32 36 35 33 37 36 35 30 24 21 19 18 16 15 14 12 13 12
20 22 21 18 21 22 21 24 24 25 24 20 21 26 26 21 29 33 35 32 28 29 29 28 31 33 33 34 38 37 40 38 36 24 23 23 21 20 18 16 14 15 16 16
18 21 18 20 24 22 25 21 24 17 20 17 18 21 25 26 27 27 35 37 35 34 30 30 33 35 34 36 40 39 40 39 32 27 25 27 26 24 21 20 22 19 14 12
25 25 24 21 21 20 17 14 16 19 20 19 29 14 25 26 28 28 29 39 41 38 33 32 35 37 35 39 42 44 43 41 32 31 26 28 26 29 29 23 17 14 15 16
27 31 23 26 23 23 13 15 17 17 14 15 27 21 22 20 24 20 23 39 42 41 39 36 33 36 37 43 42 44 39 37 36 33 28 31 30 24 21 18 17 18 13 9
16 23 23 22 20 19 16 10 6 7 10 19 15 17 23 17 28 22 19 30 40 43 40 39 38 41 45 49 47 45 42 41 36 34 35 28 21 17 18 19 19 12 14 17
11 12 5 9 14 11 11 12 6 8 14 18 21 23 21 24 24 20 21 30 36 44 42 43 46 49 55 54 52 52 47 42 39 35 31 27 24 21 20 17 16 19 19 14
7 8 5 15 18 13 2 10 17 16 20 17 17 5 22 17 15 20 18 23 30 44 45 44 51 50 54 53 51 51 47 44 40 33 32 29 25 23 18 18 21 18 16 20
3 12 16 19 10 17 12 2 4 4 6 15 10 20 14 19 19 17 16 20 32 42 43 46 39 47 59 51 50 45 46 45 38 35 32 31 27 21 19 19 17 19 22 17
6 6 14 15 10 16 5 4 9 12 11 10 15 12 11 15 17 13 17 29 36 38 44 44 26 43 45 54 54 48 46 43 38 37 36 32 27 20 20 20 23 22 20 14
6 4 8 22 23 20 16 19 18 10 13 14 16 19 11 16 17 18 15 30 29 39 43 30 32 38 17 59 50 48 45 43 44 39 35 30 28 25 26 25 24 21 17 14
2 4 7 11 2 10 3 11 20 17 15 17 12 7 6 13 20 21 22 36 35 36 38 36 54 47 48 45 48 47 47 46 41 37 34 34 29 28 28 25 23 18 15 11
7 5 12 13 19 12 4 13 21 16 11 15 16 19 15 20 16 18 26 38 42 28 34 37 37 34 55 50 54 50 47 45 41 40 33 33 32 31 29 25 21 16 13 12
2 7 15 19 23 24 24 19 19 14 17 16 16 17 18 12 13 21 31 38 30 28 33 41 36 43 49 50 51 49 46 43 44 36 34 34 31 28 25 23 20 17 14 11
3 5 15 23 19 16 11 4 13 13 14 13 15 25 21 14 19 28 28 37 31 32 33 40 43 47 48 47 49 48 46 46 40 34 33 31 29 27 25 22 20 17 14 13
4 4 5 8 11 10 3 5 12 13 10 3 8 19 22 11 22 21 35 39 36 34 32 36 41 47 50 51 49 47 45 41 35 34 33 31 29 27 24 21 19 16 13 12
6 10 6 10 17 3 7 10 13 10 15 8 14 18 14 19 6 26 31 38 37 37 37 35 44 46 48 48 47 47 43 40 39 35 34 31 28 26 23 21 18 16 14 13
9 6 5 6 13 1 9 11 8 5 7 9 17 22 5 19 41 24 28 34 36 35 37 43 46 49 48 46 46 46 44 41 36 38 36 31 27 25 23 21 19 17 16 14
15 9 6 7 8 4 9 22 30 1 3 24 25 22 14 27 15 8 36 39 39 40 45 46 51 52 49 45 42 42 41 40 38 35 32 28 25 24 23 21 19 17 15 13
10 8 8 10 4 4 17 25 34 5 8 27 26 16 21 13 12 30 47 40 40 41 45 47 46 46 45 44 43 42 40 38 35 32 29 27 26 25 23 21 19 17 14 11
5 7 6 7 5 5 30 16 9 14 29 20 20 14 34 30 29 41 46 43 45 41 42 45 47 43 41 40 42 40 38 36 34 30 29 31 26 23 21 20 17 15 12 11
2 4 6 5 5 11 22 13 28 18 15 15 17 12 35 31 31 41 41 43 40 40 41 42 44 44 39 37 38 39 35 32 30 31 30 26 24 22 19 17 15 12 11 10
1 5 4 9 3 16 14 28 31 15 14 14 17 18 30 32 33 37 40 40 40 39 40 39 39 40 38 32 32 32 31 29 29 30 29 25 23 21 18 15 14 12 11 10
4 12 9 7 6 17 7 27 24 11 12 18 23 24 26 38 32 37 38 40 39 40 38 37 37 38 35 32 31 30 29 29 29 26 25 24 22 20 21 20 14 13 16 14
5 4 4 3 14 7 16 25 13 12 15 23 29 30 31 41 40 39 36 37 39 38 37 36 35 34 31 29 28 27 26 29 27 26 22 21 19 18 17 17 18 17 13 9
Wind_Direction
259 234 252 260 267 262 273 276 278 280 287 258 262 273 277 270 243 268 227 215 232 231 229 222 216 212 203 186 201 197 190 186 186 180 174 178 184 179 183 184 181 196 187 191
270 257 245 252 262 271 269 267 267 273 261 265 264 258 254 257 266 254 251 234 225 226 227 222 212 208 194 182 195 196 188 184 185 180 173 175 177 175 178 179 181 184 181 186
274 268 273 260 249 260 268 263 265 272 272 262 276 278 259 246 247 243 249 242 238 233 225 216 209 201 185 186 194 186 176 185 182 177 164 168 167 165 168 179 176 182 181 195
286 286 280 274 264 259 256 248 261 295 285 269 260 261 259 250 234 232 232 231 232 233 226 218 205 196 182 194 186 182 177 181 174 163 169 169 166 166 173 168 185 187 200 205
274 282 284 269 264 270 291 284 275 258 257 271 260 260 256 250 235 223 222 222 224 223 222 220 206 190 189 195 186 178 179 175 163 163 168 168 172 178 185 187 190 191 194 203
270 267 255 253 260 260 252 250 264 273 266 252 248 245 257 247 257 229 227 213 216 217 219 215 210 188 189 187 179 177 175 157 164 159 165 181 186 178 168 180 186 188 179 177
296 279 267 229 247 248 239 257 235 237 221 242 249 228 241 244 244 247 230 222 209 211 214 207 205 184 185 183 173 166 161 164 157 166 180 183 171 167 164 169 187 177 168 175
287 298 33 19 264 291 271 218 247 265 245 251 242 234 233 244 253 237 250 227 213 207 209 205 202 190 184 175 168 161 164 157 160 173 169 163 162 155 165 183 147 145 173 175
312 265 322 302 285 250 355 228 252 258 263 273 269 229 285 262 263 223 238 260 222 200 209 206 207 186 179 170 160 159 156 155 166 156 159 156 148 167 173 154 151 178 178 164
309 288 280 288 290 258 200 225 233 202 247 255 252 259 255 242 221 233 225 232 242 204 204 208 205 180 201 159 158 153 155 154 150 157 151 149 163 166 161 167 170 153 155 156
277 224 283 289 243 238 178 217 233 267 252 269 275 261 36 340 325 230 217 226 229 197 200 208 194 167 173 156 150 151 146 147 151 153 156 161 159 158 155 154 150 156 162 163
252 270 275 276 273 270 226 231 227 245 256 258 260 261 47 291 313 308 222 219 219 195 195 189 146 159 164 139 142 146 143 145 154 157 157 153 150 153 150 151 153 147 153 158
202 241 287 296 209 28 276 248 244 239 259 258 260 269 348 306 290 293 298 207 223 200 190 149 128 146 158 144 144 145 148 151 155 152 151 147 150 151 150 150 146 150 158 154
247 234 245 274 297 311 237 246 256 231 244 257 258 273 272 269 270 280 283 208 215 159 129 132 127 124 134 140 147 147 147 151 148 146 148 142 145 147 150 152 152 149 145 140
243 266 269 265 270 270 270 244 254 233 242 244 261 266 262 274 278 267 260 209 131 138 128 128 125 128 138 136 141 144 143 144 141 137 138 140 138 141 137 138 138 137 134 129
230 275 299 288 278 262 225 292 352 312 299 287 265 266 272 281 258 261 250 146 143 130 121 125 132 136 138 138 140 141 143 143 145 130 129 131 130 130 130 134 133 131 126 119
272 294 293 277 325 289 122 27 342 294 268 285 244 270 309 300 262 218 150 137 124 124 125 126 131 137 135 139 139 139 143 142 133 130 131 132 133 134 129 126 125 125 124 121
305 311 268 287 314 337 140 53 341 295 284 256 282 284 283 241 241 127 125 124 119 125 127 128 131 132 134 137 140 138 138 139 136 131 134 136 132 125 125 126 128 127 122 113
290 282 286 298 322 145 142 355 318 315 285 336 343 338 140 125 84 71 108 109 117 122 125 127 131 132 134 137 137 139 141 141 135 130 127 127 128 126 124 122 122 117 113 108
330 286 260 310 314 332 357 337 323 117 238 357 337 323 188 116 88 83 95 109 111 115 123 122 122 120 119 122 130 129 125 125 122 122 127 129 129 124 122 120 115 111 106 104
337 345 321 319 305 95 359 339 320 338 336 322 325 341 72 78 97 113 108 106 109 114 114 114 114 115 118 121 121 121 124 124 128 129 129 129 126 123 122 118 116 114 115 111
318 324 339 328 316 349 360 343 14 301 304 323 357 50 90 94 107 110 111 110 110 109 110 110 111 113 119 122 123 122 123 127 131 128 129 127 120 121 119 119 113 109 103 100
329 4 311 321 331 347 330 325 329 344 340 19 23 66 103 102 103 109 110 110 109 108 109 110 111 113 117 120 124 122 125 130 132 127 123 121 119 115 112 112 108 105 102 103
89 4 277 327 54 343 330 351 358 354 22 52 69 78 102 101 106 104 107 108 109 109 110 113 113 113 116 121 123 123 127 128 125 125 124 120 117 117 110 103 99 102 101 104
360 309 326 274 349 333 341 348 354 359 75 93 96 86 90 106 100 105 105 105 106 107 109 112 113 115 118 121 122 124 127 128 124 124 124 120 117 122 130 123 110 131 127 122
1 334 330 317 325 304 298 336 353 41 91 99 106 94 89 108 102 105 103 108 108 108 111 113 114 115 117 118 118 120 124 128 125 121 123 124 120 115 114 120 120 120 130 135